Location: *
(43.0409°N, 0.1694°E)
Time: 22:33:51
(UTC+00:00)

Cosmos 1709 Rocket - Pass Details

Date: 03 October 2023
Orbit: 947 x 1002 km, 82.9° (Epoch: 04 December)

Event Time Altitude Azimuth Distance (km) Brightness Sun altitude
Rises 04:31:43 0° 180° (S) 3,709 6.9 -16.6°
Reaches altitude 10° 04:34:14 10° 178° (S) 2,765 6.3 -16.2°
Maximum altitude 04:40:34 74° 95° (E) 1,041 4.3 -15.0°
Drops below altitude 10° 04:46:55 10° 11° (NNE) 2,772 6.6 -13.9°
Sets 04:49:27 0° 10° (N) 3,720 7.3 -13.4°
